User: anonymous   Login
Location: Alexandria
(38.8050°N, 77.0470°W)
Time: 09:42:45
(UTC-05:00)
Language:

Tiangong 2 - Orbit

View from above orbital plane
View from above orbital plane
View from above satellite
View from above satellite

Ground track
Ground track

The orbit data is extracted from the following two-line orbital elements,

1 41765U 16057A   17326.96667277  .00005632  00000-0  73434-4 0  9992
2 41765  42.7826 131.3991 0004274 272.3565 229.3279 15.59582225 67762
Epoch (UTC): 22 November 2017 23:12:00
Eccentricity: 0.0004274
inclination: 42.7826°
perigee height: 386 km
apogee height: 392 km
right ascension of ascending node: 131.3991°
argument of perigee: 272.3565°
revolutions per day: 15.59582225
mean anomaly at epoch: 229.3279°
orbit number at epoch: 6776

The dashed part of the orbit path shows where the satellite is in the earth's shadow,  

DLR